Hourly Weather Rudno

Today, 18 April, Sunday

Time Temperature Precipitation Wind Pressure Humidity
00:00 +2°C° 0 mm 0 mps 735 mmHg 98%
01:00 +3°C° 0 mm 0 mps 735 mmHg 98%
02:00 +3°C° 0 mm 0 mps 734 mmHg 97%
03:00 +3°C° 0 mm 0 mps 734 mmHg 97%
04:00 +3°C° 0 mm 0 mps 734 mmHg 97%
05:00 +3°C° 0 mm 0 mps 734 mmHg 97%
06:00 +3°C° 0 mm 0 mps 734 mmHg 96%
07:00 +3°C° 0 mm 0 mps 734 mmHg 95%
08:00 +5°C° 0 mm 1 mps 734 mmHg 92%
09:00 +4°C° 0 mm 2 mps 734 mmHg 89%
10:00 +5°C° 0 mm 2 mps 734 mmHg 86%
11:00 +6°C° 0 mm 2 mps 734 mmHg 81%
12:00 +7°C° 0 mm 2 mps 735 mmHg 76%
13:00 +8°C° 0 mm 2 mps 735 mmHg 71%
14:00 +8°C° 0 mm 2 mps 734 mmHg 73%
15:00 +7°C° 0 mm 2 mps 734 mmHg 75%
16:00 +7°C° 0 mm 2 mps 734 mmHg 77%
17:00 +7°C° 0 mm 2 mps 734 mmHg 80%
18:00 +7°C° 0 mm 2 mps 734 mmHg 82%
19:00 +7°C° 0 mm 1 mps 734 mmHg 85%
20:00 +7°C° 0 mm 1 mps 734 mmHg 85%
21:00 +7°C° 0 mm 1 mps 734 mmHg 84%
22:00 +7°C° 0 mm 1 mps 734 mmHg 84%
23:00 +7°C° 0 mm 1 mps 734 mmHg 85%

Tomorrow, 19 April, Monday

Time Temperature Precipitation Wind Pressure Humidity
00:00 +7°C° 0 mm 1 mps 734 mmHg 85%
01:00 +6°C° 0 mm 1 mps 734 mmHg 86%
02:00 +6°C° 0 mm 1 mps 734 mmHg 87%
03:00 +6°C° 0 mm 1 mps 733 mmHg 87%
04:00 +6°C° 0 mm 1 mps 733 mmHg 88%
05:00 +6°C° 0.4 mm 1 mps 733 mmHg 89%
06:00 +7°C° 0.4 mm 1 mps 733 mmHg 90%
07:00 +7°C° 0.4 mm 1 mps 733 mmHg 91%
08:00 +7°C° 0.7 mm 1 mps 733 mmHg 91%
09:00 +8°C° 0.7 mm 1 mps 733 mmHg 91%
10:00 +8°C° 0.7 mm 1 mps 733 mmHg 91%
11:00 +8°C° 0.1 mm 2 mps 733 mmHg 85%
12:00 +9°C° 0.1 mm 2 mps 733 mmHg 80%
13:00 +10°C° 0.1 mm 3 mps 733 mmHg 75%
14:00 +10°C° 0.1 mm 3 mps 732 mmHg 75%
15:00 +10°C° 0.1 mm 3 mps 732 mmHg 75%
16:00 +10°C° 0.1 mm 3 mps 732 mmHg 74%
17:00 +9°C° 0.2 mm 3 mps 732 mmHg 79%
18:00 +8°C° 0.2 mm 3 mps 732 mmHg 83%
19:00 +8°C° 0.2 mm 2 mps 732 mmHg 87%
20:00 +7°C° 0.2 mm 2 mps 732 mmHg 88%
21:00 +7°C° 0.2 mm 2 mps 732 mmHg 89%
22:00 +7°C° 0.2 mm 2 mps 732 mmHg 90%
23:00 +6°C° 0 mm 2 mps 732 mmHg 90%

Day after tomorrow, 20 April, Tuesday

Time Temperature Precipitation Wind Pressure Humidity
00:00 +6°C° 0 mm 2 mps 732 mmHg 91%
01:00 +7°C° 0 mm 1 mps 731 mmHg 91%
02:00 +6°C° 0 mm 1 mps 731 mmHg 91%
03:00 +6°C° 0 mm 1 mps 731 mmHg 92%
04:00 +6°C° 0 mm 1 mps 731 mmHg 92%
05:00 +7°C° 0.1 mm 1 mps 731 mmHg 91%
06:00 +7°C° 0.1 mm 1 mps 731 mmHg 90%
07:00 +7°C° 0.1 mm 2 mps 731 mmHg 89%
08:00 +7°C° 0.1 mm 2 mps 731 mmHg 85%
09:00 +8°C° 0.1 mm 2 mps 731 mmHg 82%
10:00 +9°C° 0.1 mm 3 mps 731 mmHg 78%
11:00 +9°C° 0.2 mm 3 mps 731 mmHg 78%
12:00 +9°C° 0.2 mm 3 mps 731 mmHg 78%
13:00 +9°C° 0.2 mm 3 mps 731 mmHg 78%
14:00 +9°C° 0 mm 2 mps 731 mmHg 75%
15:00 +10°C° 0 mm 2 mps 731 mmHg 72%
16:00 +11°C° 0 mm 1 mps 731 mmHg 69%
17:00 +10°C° 0 mm 1 mps 731 mmHg 74%
18:00 +9°C° 0 mm 1 mps 731 mmHg 78%
19:00 +8°C° 0 mm 1 mps 731 mmHg 83%
20:00 +8°C° 0 mm 1 mps 731 mmHg 83%
21:00 +7°C° 0 mm 0 mps 731 mmHg 84%
22:00 +6°C° 0 mm 0 mps 731 mmHg 85%
23:00 +6°C° 0 mm 0 mps 731 mmHg 85%

21 April, Wednesday

Time Temperature Precipitation Wind Pressure Humidity
00:00 +7°C° 0 mm 1 mps 731 mmHg 85%
01:00 +7°C° 0 mm 1 mps 731 mmHg 86%
02:00 +7°C° 0 mm 1 mps 731 mmHg 87%
03:00 +7°C° 0 mm 1 mps 731 mmHg 87%
04:00 +7°C° 0 mm 1 mps 731 mmHg 88%
05:00 +7°C° 0.1 mm 1 mps 731 mmHg 87%
06:00 +8°C° 0.1 mm 1 mps 731 mmHg 86%
07:00 +8°C° 0.1 mm 1 mps 731 mmHg 84%
08:00 +9°C° 0.2 mm 1 mps 731 mmHg 80%
09:00 +9°C° 0.2 mm 2 mps 731 mmHg 75%
10:00 +10°C° 0.2 mm 2 mps 731 mmHg 71%
11:00 +12°C° 0.1 mm 2 mps 731 mmHg 64%
12:00 +13°C° 0.1 mm 2 mps 731 mmHg 57%
13:00 +14°C° 0.1 mm 2 mps 731 mmHg 51%
14:00 +15°C° 0 mm 2 mps 730 mmHg 49%
15:00 +15°C° 0 mm 2 mps 730 mmHg 47%
16:00 +15°C° 0 mm 2 mps 730 mmHg 45%
17:00 +13°C° 0 mm 2 mps 730 mmHg 53%
18:00 +12°C° 0 mm 2 mps 730 mmHg 62%
19:00 +9°C° 0 mm 2 mps 730 mmHg 70%
20:00 +9°C° 0.2 mm 2 mps 730 mmHg 75%
21:00 +9°C° 0.2 mm 2 mps 731 mmHg 79%
22:00 +8°C° 0.2 mm 2 mps 731 mmHg 84%
23:00 +8°C° 0.1 mm 2 mps 731 mmHg 85%

22 April, Thursday

Time Temperature Precipitation Wind Pressure Humidity
00:00 +8°C° 0.1 mm 2 mps 731 mmHg 86%
01:00 +8°C° 0.1 mm 2 mps 731 mmHg 87%
02:00 +7°C° 0.1 mm 2 mps 731 mmHg 88%
03:00 +7°C° 0.1 mm 2 mps 731 mmHg 89%
04:00 +6°C° 0.1 mm 2 mps 731 mmHg 90%
05:00 +7°C° 0 mm 2 mps 732 mmHg 89%
06:00 +7°C° 0 mm 2 mps 732 mmHg 87%
07:00 +7°C° 0 mm 3 mps 732 mmHg 85%
08:00 +8°C° 0.1 mm 3 mps 732 mmHg 84%
09:00 +8°C° 0.1 mm 3 mps 733 mmHg 82%
10:00 +8°C° 0.1 mm 3 mps 733 mmHg 81%
11:00 +7°C° 0.6 mm 3 mps 733 mmHg 84%
12:00 +5°C° 0.6 mm 3 mps 733 mmHg 87%
13:00 +4°C° 0.6 mm 4 mps 733 mmHg 90%
14:00 +4°C° 0.2 mm 3 mps 733 mmHg 87%
15:00 +4°C° 0.2 mm 3 mps 734 mmHg 84%
16:00 +5°C° 0.2 mm 2 mps 734 mmHg 80%
17:00 +5°C° 0 mm 2 mps 734 mmHg 82%
18:00 +4°C° 0 mm 2 mps 734 mmHg 84%
19:00 +4°C° 0 mm 2 mps 734 mmHg 86%
20:00 +3°C° 0 mm 2 mps 735 mmHg 86%
21:00 +3°C° 0 mm 2 mps 735 mmHg 86%
22:00 +2°C° 0 mm 2 mps 735 mmHg 86%
23:00 +1°C° 0 mm 3 mps 735 mmHg 87%

23 April, Friday

Time Temperature Precipitation Wind Pressure Humidity
00:00 +1°C° 0 mm 3 mps 735 mmHg 89%
01:00 0°C° 0 mm 4 mps 735 mmHg 90%
02:00 0°C° 0 mm 4 mps 736 mmHg 87%
03:00 0°C° 0 mm 4 mps 736 mmHg 85%
04:00 0°C° 0 mm 4 mps 736 mmHg 83%
05:00 0°C° 0.1 mm 4 mps 736 mmHg 85%
06:00 0°C° 0.1 mm 4 mps 737 mmHg 88%
07:00 +1°C° 0.1 mm 4 mps 737 mmHg 91%
08:00 +1°C° 0.2 mm 4 mps 738 mmHg 86%
09:00 +2°C° 0.2 mm 5 mps 738 mmHg 80%
10:00 +3°C° 0.2 mm 5 mps 738 mmHg 75%
11:00 +3°C° 0.3 mm 5 mps 738 mmHg 72%
12:00 +5°C° 0.3 mm 5 mps 739 mmHg 70%
13:00 +6°C° 0.3 mm 5 mps 739 mmHg 67%
14:00 +6°C° 0.3 mm 5 mps 739 mmHg 65%
15:00 +6°C° 0.3 mm 5 mps 739 mmHg 63%
16:00 +6°C° 0.3 mm 5 mps 739 mmHg 62%
17:00 +5°C° 0.2 mm 4 mps 740 mmHg 68%
18:00 +4°C° 0.2 mm 3 mps 740 mmHg 74%
19:00 +4°C° 0.2 mm 2 mps 740 mmHg 80%
20:00 +3°C° 0 mm 2 mps 740 mmHg 80%
21:00 +3°C° 0 mm 2 mps 741 mmHg 81%
22:00 +2°C° 0 mm 2 mps 741 mmHg 81%
23:00 +2°C° 0 mm 2 mps 741 mmHg 81%
Show more